Location: Ostrava
(49.8330°N, 18.2830°E)
Time: 08:49:42
(UTC+02:00)

Vanguard 2 Rocket - Visible Passes

Search period start: 27 April 2018 00:00
Search period end: 07 May 2018 00:00
Orbit: 553 x 3328 km, 32.9° (Epoch: 26 April)

Date Brightness Start Highest point End Pass type
(mag) Time Alt. Az. Time Alt. Az. Time Alt. Az.
27 Apr 9.9 02:25:12 18° SSE 02:31:28 23° SE 02:44:15 10° E visible
27 Apr 10.0 04:31:07 10° SW 04:45:26 41° SSE 05:03:16 10° ESE visible
28 Apr 10.1 01:28:44 14° SE 01:31:49 15° SE 01:40:02 10° ESE visible
28 Apr 9.8 03:34:31 17° SSW 03:44:41 35° SSE 04:01:18 10° E visible
29 Apr 9.7 02:38:03 21° S 02:44:24 29° SE 02:58:47 10° E visible
29 Apr 9.9 04:44:35 10° SW 04:58:49 43° S 05:16:58 10° ESE visible
30 Apr 9.8 01:41:33 19° SSE 01:44:36 21° SE 01:55:36 10° E visible
30 Apr 9.7 03:47:20 16° SW 03:57:57 39° SSE 04:15:09 10° ESE visible
01 May 10.0 00:45:04 13° SE 00:45:15 13° SE 00:50:55 10° ESE visible
01 May 9.5 02:50:50 23° SSW 02:57:32 33° SSE 03:12:53 10° E visible
02 May 9.5 01:54:21 24° SSE 01:57:36 26° SE 02:10:10 10° E visible
02 May 9.6 04:00:07 14° SW 04:11:22 42° S 04:28:47 10° ESE visible
03 May 9.7 00:57:51 18° SE 00:58:07 18° SE 01:06:50 10° ESE visible
03 May 9.3 03:03:38 22° SSW 03:10:52 37° SSE 03:26:41 10° ESE visible
04 May 9.2 02:07:08 27° S 02:10:48 31° SSE 02:24:16 10° E visible
04 May 9.6 04:12:55 10° WSW 04:24:54 42° S 04:42:12 10° ESE visible
05 May 9.4 01:10:40 23° SSE 01:11:12 23° SE 01:21:32 10° ESE visible
05 May 9.3 03:16:27 20° SW 03:24:21 39° SSE 03:40:16 10° ESE visible
06 May 9.8 00:14:12 14° SE 00:14:12 14° SE 00:18:07 10° ESE visible
06 May 9.0 02:19:59 27° SSW 02:24:12 34° SSE 02:38:04 10° ESE visible
06 May 9.6 04:26:45 10° WSW 04:38:31 40° S 04:55:22 10° SE visible
